{"data":{"norad_id":67664,"intl_designator":"2026-022S","name":"STARLINK-36404","alt_names":[],"object_type":"PAYLOAD","status":"ACTIVE","operator":null,"country":"US","launch_date":"2026-02-02","launch_site_code":"AFWTR","launch_vehicle":null,"mission":null,"orbit_class":"UNKNOWN","rcs_meters":null,"size_class":null,"mass_kg":null,"dimensions":null,"purposes":["comms"],"wikipedia_slug":null,"has_3d_model":false,"image_url":null,"decayed_at":null,"tle_current":{"epoch":"2026-05-25T01:38:16.478592Z","epoch_age_seconds":79453,"freshness":"FRESH","line1":"1 67664U 26022S   26145.06824628  .00017974  00000+0  55765-3 0  9993","line2":"2 67664  97.2841 178.2590 0001434  78.1070 282.0333 15.33449717 17271","mean_motion":15.33449717,"eccentricity":0.0001434,"inclination_deg":97.2841,"raan_deg":178.259,"arg_perigee_deg":78.107,"mean_anomaly_deg":282.0333,"bstar":0.00055765,"rev_number":1727,"period_min":93.905915794694,"perigee_km":464.54775831632,"apogee_km":466.51052176528,"semimajor_km":6843.6661400408,"source":"CELESTRAK","updated_at":"2026-05-25T13:38:21.660166Z"}}}